FLOCK 4Q 19

导读

FLOCK 4Q 19是美国Planet实验室所属的一颗商业遥感卫星,属于Flock系列SuperDove鸽子卫星星座的组成部分,于2023年11月11日发射入轨。该卫星延续了SuperDove系列多光谱成像技术,配备多光谱观测载荷,可提供中高分辨率地球影像,服务农业监测、自然资源调查、城市规划、灾害应急响应等领域,补充了全球 daily 观测覆盖能力,为商业遥感应用提供持续的数据源支撑。

基本信息
目录编号:
58278
目录名称:
FLOCK 4Q 19
国际标识:
2023-174Y
轨道中心:
EARTH
卫星名称:
FLOCK 4Q 19
卫星全名:
--
卫星状态:
已陨落 最后检测时间 2025-05-31
发射日期:
2023-11-11 UTC
国别 :
美国 (US)
星等 :
--
轨道信息
数据来源 国际轨道数据
星历时间: 2025-05-26T20:22:14+0800
轨道信息已过期381天
半长轴: 6563.177km
偏心率: 0.0017758
轨道倾角: 97.379°
近地点辐角 274.446°
升交点赤经 230.745°
平近点角 85.480°
近地点: 173.387km
远地点: 196.697km
周期: 88.192分钟
每日圈数: 16.32795
详细信息
使用方式:
暂无